N0XUT Weather Reports


Display with metric or nautical units.
time (UTC)temp
F
wind
direction
speed
MPH
gust
MPH
rain 1hr
in
rain 24hr
in
rain mn
in
humidity
%
barometer
mb
20260902163002 87 176 2.0 7.0 0.00 0.00 0.00 67 1011.5
20260902161501 86 227 2.0 6.0 0.00 0.00 0.00 70 1011.4
20260902154501 83 230 3.0 9.0 0.00 0.00 0.00 71 1011.3
20260902153001 83 239 3.0 6.0 0.00 0.00 0.00 72 1011.3
20260902151501 82 231 3.0 6.0 0.00 0.00 0.00 74 1011.1
20260902150001 81 186 2.0 6.0 0.00 0.00 0.00 75 1011.0
20260902144501 80 178 3.0 9.0 0.00 0.00 0.00 79 1010.7
20260902143001 79 166 3.0 8.0 0.00 0.00 0.00 80 1010.8
20260902141501 78 161 3.0 6.0 0.00 0.00 0.00 82 1011.1
20260902134501 75 248 1.0 3.0 0.00 0.00 0.00 84 1011.3
20260902133001 75 281 1.0 2.0 0.00 0.00 0.00 85 1011.4
20260902131501 74 172 0.0 2.0 0.00 0.00 0.00 86 1011.0
20260902130001 73 126 1.0 3.0 0.00 0.00 0.00 87 1011.1
20260902121501 74 188 1.0 3.0 0.00 0.00 0.00 83 1011.4
20260902120001 74 303 1.0 5.0 0.00 0.00 0.00 82 1011.5
20260902113002 74 295 0.0 2.0 0.00 0.00 0.00 82 1011.4
20260902110002 76 163 1.0 3.0 0.00 0.00 0.00 78 1011.7
20260902103001 77 290 2.0 12.0 0.00 0.00 0.00 76 1011.4
20260902101502 76 341 5.0 12.0 0.00 0.00 0.00 78 1011.3
20260902100001 76 354 6.0 12.0 0.00 0.00 0.00 77 1011.1
20260902093002 77 212 3.0 7.0 0.00 0.00 0.00 75 1010.6
20260902091502 77 187 3.0 8.0 0.00 0.00 0.00 75 1010.5
20260902090001 77 182 2.0 8.0 0.00 0.00 0.00 75 1010.6
20260902084501 77 198 3.0 6.0 0.00 0.00 0.00 75 1010.6
20260902083002 78 198 2.0 7.0 0.00 0.00 0.00 74 1010.8
20260902081502 78 190 3.0 12.0 0.00 0.00 0.00 73 1010.7
20260902074502 79 214 3.0 10.0 0.00 0.00 0.00 72 1010.5
20260902073001 79 193 3.0 10.0 0.00 0.00 0.00 71 1010.3
20260902071501 79 199 2.0 7.0 0.00 0.00 0.00 71 1010.2
20260902070002 79 199 5.0 9.0 0.00 0.00 0.00 70 1010.2
20260902064502 80 182 4.0 10.0 0.00 0.00 0.00 70 1010.1
20260902054502 80 192 3.0 9.0 0.00 0.00 0.00 71 1010.4
20260902053001 80 193 4.0 13.0 0.00 0.00 0.00 71 1010.4
20260902044501 80 176 6.0 14.0 0.00 0.00 0.00 74 1010.3
20260902040002 80 177 4.0 8.0 0.00 0.00 0.00 77 1010.6
20260902034502 81 173 3.0 8.0 0.00 0.00 0.00 77 1010.6
20260902033001 80 174 3.0 8.0 0.00 0.00 0.00 79 1010.7
20260902030002 80 167 2.0 5.0 0.00 0.00 0.00 81 1010.5
20260902024501 82 157 2.0 6.0 0.00 0.00 0.00 79 1010.4
20260902023002 82 153 3.0 5.0 0.00 0.00 0.00 78 1010.3
20260902021502 82 161 1.0 3.0 0.00 0.00 0.00 78 1010.3
20260902020002 83 157 0.0 2.0 0.00 0.00 0.00 77 1010.2
20260902013002 84 171 0.0 2.0 0.00 0.00 0.00 77 1010.0
20260902011502 84 126 0.0 3.0 0.00 0.00 0.00 76 1009.9
20260902010002 85 142 0.0 2.0 0.00 0.00 0.00 75 1009.8
20260902004501 86 142 0.0 2.0 0.00 0.00 0.00 73 1009.7
20260902003002 88 142 1.0 2.0 0.00 0.00 0.00 70 1009.7
20260902001502 89 188 0.0 1.0 0.00 0.00 0.00 68 1009.7
20260901234502 90 173 1.0 3.0 0.00 0.00 0.00 66 1009.9
20260901233002 91 177 2.0 5.0 0.00 0.00 0.00 64 1009.9
20260901231502 91 194 2.0 5.0 0.00 0.00 0.00 62 1009.8
20260901230001 92 168 2.0 5.0 0.00 0.00 0.00 61 1009.8
20260901224502 92 182 3.0 8.0 0.00 0.00 0.00 61 1010.0
20260901221502 93 196 2.0 10.0 0.00 0.00 0.00 58 1010.0
20260901214502 94 174 3.0 9.0 0.00 0.00 0.00 59 1010.0
20260901213002 94 181 5.0 8.0 0.00 0.00 0.00 60 1010.1
20260901211502 93 170 1.0 7.0 0.00 0.00 0.00 59 1010.3
20260901210002 93 218 3.0 9.0 0.00 0.00 0.00 60 1010.4
20260901204502 93 178 2.0 8.0 0.00 0.00 0.00 61 1010.6
20260901203002 93 244 2.0 8.0 0.00 0.00 0.00 60 1010.7
20260901200002 93 176 3.0 9.0 0.00 0.00 0.00 63 1011.0
20260901194502 92 212 3.0 8.0 0.00 0.00 0.00 62 1011.1
20260901193002 92 224 2.0 9.0 0.00 0.00 0.00 62 1011.2
20260901191502 92 178 5.0 8.0 0.00 0.00 0.00 64 1011.3
20260901190002 92 214 3.0 7.0 0.00 0.00 0.00 63 1011.3
20260901184502 91 194 2.0 6.0 0.00 0.00 0.00 67 1011.4
20260901183002 91 184 2.0 6.0 0.00 0.00 0.00 66 1011.5
20260901181503 91 172 2.0 7.0 0.00 0.00 0.00 64 1011.6
20260901180002 91 194 2.0 6.0 0.00 0.00 0.00 68 1011.7
20260901174502 89 143 2.0 8.0 0.00 0.00 0.00 70 1011.8
20260901173003 89 194 2.0 5.0 0.00 0.00 0.00 73 1011.9
20260901171503 89 173 3.0 8.0 0.00 0.00 0.00 70 1012.0
20260901170002 88 151 3.0 7.0 0.00 0.00 0.00 76 1012.0